Location: Bas-Clignon
(44.2000°N, 6.6333°E)
Time: 02:35:25
(UTC+00:00)

Cosmos 407 Rocket - Pass Details

Date: 03 February 2023
Orbit: 742 x 785 km, 74.0° (Epoch: 27 March)

Event Time Altitude Azimuth Distance (km) Brightness Sun altitude
Rises 17:12:25 0° 202° (SSW) 3,191 7.3 -5.3°
Reaches altitude 10° 17:14:47 10° 203° (SSW) 2,265 6.6 -5.8°
Maximum altitude 17:19:55 80° 291° (WNW) 763 3.6 -6.6°
Drops below altitude 10° 17:25:03 10° 19° (NNE) 2,265 5.6 -7.5°
Sets 17:27:25 0° 20° (NNE) 3,192 6.4 -7.9°
